Back to catalog

FREGAT DEB

LostHEO
NORAD 45903·DEBRIS·🇷🇺 Russia

Launched Jul 18, 2011 from Baikonur Cosmodrome

Loading…

Next Passes (next 24 hours)

TLE

StaleSource: Space-Track

Epoch: Aug 22, 2020, 13:01 UTC

1 45903U 11037DY  20235.54245008 -.00034020  00000-0 -38789-1 0  9990
2 45903  51.4269 268.2385 2737494 115.6547 275.1106  9.25519004  4088

Track FREGAT DEB in real time with AllMySat

Download on the App Store